Location: Powder Track
(41.8531°N, 72.3584°W)
Time: 22:26:35
(UTC+00:00)

Vanguard 2 Rocket - Pass Details

Date: 06 August 2021
Orbit: 555 x 3324 km, 32.9° (Epoch: 18 September)

Event Time Altitude Azimuth Distance (km) Brightness Sun altitude
Rises 13:51:42 0° 257° (WSW) 2,783 9.0 43.4°
Reaches altitude 10° 13:54:26 10° 238° (WSW) 1,826 8.3 43.9°
Maximum altitude 13:57:16 19° 191° (S) 1,378 8.2 44.3°
Drops below altitude 10° 14:00:20 10° 145° (SE) 1,990 9.4 44.9°
Sets 14:03:30 0° 127° (SE) 3,140 10.4 45.4°
